Weather History for KBFF - January, 2002

Change the Weather History Date:

Monday, January 28, 2002

  Actual Average Record
Temperature  
Mean Temperature 18 °F 28 °F  
Max Temperature 24 °F 42 °F 68 °F (1931)
Min Temperature 12 °F 14 °F -16 °F (1948)
Degree Days  
Heating Degree Days 47 37  
Month to date heating degree days 1059  
Since 1 July heating degree days 3831  
Moisture  
Dew Point 10 °F    
Average Humidity 75    
Maximum Humidity 88    
Minimum Humidity 60    
Precipitation  
Precipitation 0.00 in 0.02 in 0.19 in (1991)
Month to date precipitation 0.37  
Year to date precipitation 0.37  
Snow  
Snow 0.00 in 0.10 in 2.90 in (1951)
Month to date snowfall 4.8  
Since 1 July snowfall 20.8  
Snow Depth -    
Sea Level Pressure  
Sea Level Pressure 29.95 in    
Wind  
Wind Speed 8 mph (East)    
Max Wind Speed 14 mph    
Max Gust Speed 20 mph    
Visibility 7 miles    
Events Snow    
T = Trace of Precipitation, MM = Missing Value Source: NWS Daily Summary

Daily Weather History Graph

Daily Weather History Graph

Search for Another Location

Airport or City:

Trip Planner

Search our weather history database for the weather conditions in past years. The results will help you decide how hot, cold, wet, or windy it might be!

Date:

Astronomy

Jan. 28, 2002 Rise Set
Actual Time 7:10 AM MST 5:04 PM MST
Civil Twilight 6:40 AM MST 5:34 PM MST
Nautical Twilight 6:07 AM MST 6:07 PM MST
Astronomical Twilight 5:34 AM MST 6:40 PM MST
Moon 4:54 PM MST (1/28) 7:16 AM MST (1/28)
Length of Visible Light 10h 53m
Length of Day
9h 53m
Full, 100% of the Moon is Illuminated
Jan 28
Full
Jan 28
Full
Feb 4
Last Quarter
Feb 12
New
Feb 20
First Quarter

Hourly Weather History & Observations

Time (MST) Temp. Windchill Dew Point Humidity Pressure Visibility Wind Dir Wind Speed Gust Speed Precip Events Conditions
12:54 AM 12.0 °F 2.7 °F 8.1 °F 84% 29.95 in 8.0 mi NE 5.8 mph - N/A   Scattered Clouds
1:08 AM 14.0 °F 3.9 °F 10.4 °F 86% 29.88 in 8.0 mi NE 6.9 mph - N/A   Mostly Cloudy
1:54 AM 15.1 °F 6.4 °F 10.9 °F 84% 29.93 in 8.0 mi East 5.8 mph - N/A   Overcast
2:54 AM 15.1 °F 5.2 °F 10.9 °F 84% 29.90 in 8.0 mi ESE 6.9 mph - N/A   Overcast
3:37 AM 15.8 °F 6.1 °F 10.4 °F 79% 29.84 in 8.0 mi East 6.9 mph - N/A   Overcast
3:54 AM 15.1 °F 6.4 °F 10.9 °F 84% 29.93 in 8.0 mi East 5.8 mph - N/A   Overcast
4:54 AM 15.1 °F 6.4 °F 10.9 °F 84% 29.96 in 7.0 mi SSE 5.8 mph - N/A   Overcast
5:54 AM 14.0 °F 2.0 °F 10.9 °F 88% 29.97 in 7.0 mi ESE 9.2 mph - N/A   Overcast
6:54 AM 14.0 °F 1.2 °F 10.9 °F 88% 30.00 in 7.0 mi ESE 10.4 mph - N/A   Overcast
7:54 AM 14.0 °F 0.5 °F 10.9 °F 88% 29.99 in 4.0 mi SE 11.5 mph - N/A   Overcast
8:54 AM 15.1 °F 1.8 °F 10.9 °F 84% 29.99 in 2.0 mi ESE 11.5 mph - 0.00 in Snow Light Snow
9:30 AM 15.8 °F 2.1 °F 12.2 °F 86% 29.82 in 2.5 mi SE 12.7 mph - 0.00 in Snow Light Snow
9:54 AM 17.1 °F 3.6 °F 12.0 °F 81% 29.97 in 3.0 mi SE 12.7 mph - 0.00 in   Haze
10:54 AM 19.0 °F 9.0 °F 12.9 °F 77% 29.96 in 5.0 mi East 8.1 mph - N/A   Haze
11:54 AM 21.9 °F 12.5 °F 12.9 °F 68% 29.93 in 6.0 mi East 8.1 mph - N/A   Haze
12:54 PM 21.9 °F 11.0 °F 12.9 °F 68% 29.91 in 7.0 mi East 10.4 mph - N/A   Overcast
1:54 PM 24.1 °F 15.2 °F 12.9 °F 62% 29.89 in 7.0 mi ESE 8.1 mph - N/A   Partly Cloudy
2:54 PM 24.1 °F 12.0 °F 12.0 °F 60% 29.88 in 8.0 mi ENE 13.8 mph - N/A   Clear
3:54 PM 21.9 °F 10.4 °F 10.0 °F 60% 29.90 in 7.0 mi East 11.5 mph - N/A   Clear
4:54 PM 19.0 °F 6.8 °F 8.1 °F 62% 29.94 in 8.0 mi ENE 11.5 mph - N/A   Clear
5:26 PM 17.6 °F 5.0 °F 6.8 °F 63% 29.81 in 9.0 mi NE 11.5 mph - N/A   Mostly Cloudy
5:54 PM 17.1 °F 3.6 °F 7.0 °F 65% 29.98 in 10.0 mi NE 12.7 mph - N/A   Overcast
6:54 PM 16.0 °F 3.6 °F 7.0 °F 68% 30.03 in 9.0 mi ENE 10.4 mph - N/A   Overcast
7:54 PM 16.0 °F 2.3 °F 7.0 °F 68% 30.05 in 8.0 mi NE 12.7 mph 19.6 mph N/A   Overcast
8:54 PM 15.1 °F 3.3 °F 6.1 °F 68% 30.07 in 10.0 mi ENE 9.2 mph - N/A   Overcast
9:54 PM 14.0 °F 2.0 °F 7.0 °F 74% 30.04 in 9.0 mi ESE 9.2 mph - N/A   Overcast
10:54 PM 14.0 °F 3.9 °F 6.1 °F 71% 30.02 in 10.0 mi East 6.9 mph - N/A   Overcast
11:54 PM 14.0 °F 5.1 °F 6.1 °F 71% 30.03 in 10.0 mi ENE 5.8 mph - N/A   Overcast